Location: Lafig�re
(44.4503°N, 4.0357°E)
Time: 02:10:51
(UTC+00:00)

Transit 4A - Pass Details

Date: 25 January 2021
Orbit: 866 x 979 km, 66.8° (Epoch: 24 February)

Event Time Altitude Azimuth Distance (km) Brightness Sun altitude
Rises 21:23:45 0° 283° (WNW) 3,679 11.7 -49.2°
Reaches altitude 10° 21:28:08 10° 311° (NW) 2,725 10.8 -49.9°
Enters shadow 21:28:32 11° 315° (NW) 2,671 10.7 -49.9°
Maximum altitude 21:30:51 13° 337° (NNW) 2,516 - -50.3°
Drops below altitude 10° 21:33:34 10° 2° (N) 2,707 - -50.7°
Sets 21:37:54 0° 30° (NNE) 3,633 - -51.4°
